Location: Zapote
(9.9191°N, 84.0597°W)
Time: 13:54:16
(UTC-06:00)

Courier 1B Rocket - Visible Passes

Search period start: 04 March 2021 00:00
Search period end: 14 March 2021 00:00
Orbit: 920 x 1202 km, 28.3° (Epoch: 03 March)

Date Brightness Start Highest point End Pass type
(mag) Time Alt. Az. Time Alt. Az. Time Alt. Az.
04 Mar 6.3 18:31:46 10° NW 18:38:35 33° NNE 18:43:21 18° ENE visible
04 Mar 6.4 20:25:03 10° WNW 20:29:44 40° NW 20:29:44 40° NW visible
05 Mar 5.5 19:23:49 10° NW 19:31:31 59° NNE 19:32:46 53° ENE visible
05 Mar 7.7 21:17:55 10° WNW 21:19:10 15° W 21:19:10 15° W visible
06 Mar 6.0 18:22:44 10° NW 18:30:00 43° NNE 18:35:52 16° E visible
06 Mar 5.9 20:16:17 10° WNW 20:22:16 54° W 20:22:16 54° W visible
07 Mar 5.3 19:14:55 10° WNW 19:22:44 83° NNE 19:25:24 46° ESE visible
07 Mar 7.5 21:09:44 10° W 21:11:48 18° W 21:11:48 18° W visible
08 Mar 5.6 18:13:46 10° NW 18:21:19 60° NNE 18:28:36 12° ESE visible
08 Mar 6.0 20:07:46 10° WNW 20:15:00 48° SW 20:15:00 48° SW visible
09 Mar 5.6 19:06:12 10° WNW 19:13:53 70° SSW 19:18:14 29° SE visible
09 Mar 7.5 21:02:05 10° WSW 21:04:38 17° WSW 21:04:38 17° WSW visible
10 Mar 5.5 18:04:55 10° WNW 18:12:32 84° NNE 18:20:24 10° ESE visible
10 Mar 6.6 19:59:38 10° W 20:06:23 32° SSW 20:07:55 30° S visible
11 Mar 6.2 18:57:45 10° WNW 19:05:02 47° SSW 19:11:11 15° SE visible
11 Mar 7.7 20:55:27 10° WSW 20:57:35 13° SW 20:57:35 13° SW visible
12 Mar 5.8 17:56:16 10° WNW 18:03:42 68° SSW 18:11:29 10° SE visible
12 Mar 7.2 19:52:04 10° WSW 19:57:37 21° SSW 20:00:52 16° S visible
13 Mar 6.8 18:49:42 10° W 18:56:13 31° SSW 19:02:56 10° SSE visible
